"Pseudo-MPEC" for P22n0vC

Created 2026 May 12 20:35:09 UT using Find_Orb

Click here for an explanation of pseudo-MPECs

 
 Astrometry: 
     P22n0vC*0C2026 05 08.33068414 53 19.822+10 14 59.42   ~589Z 21.83wXNEOCPF52
     P22n0vC 0C2026 05 08.34148814 53 18.812+10 14 54.83   ~589Z 21.69wXNEOCPF52
     P22n0vC 0C2026 05 08.35231514 53 17.807+10 14 50.04   ~589Z 21.91wXNEOCPF52
     P22n0vC 1C2026 05 08.41071014 53 12.023+10 14 23.53   ~58AKx      VNEOCPV06
     P22n0vC 1C2026 05 08.41339114 53 11.821+10 14 22.52   ~58AKx      VNEOCPV06
     P22n0vC 0C2026 05 08.41480814 53 11.983+10 14 21.66   ~58GZ 22.38GVNEOCPF52
     P22n0vC 0C2026 05 08.41544214 53 11.932+10 14 21.50   ~58GZ 21.68GVNEOCPF52
     P22n0vC 1C2026 05 08.41607314 53 11.555+10 14 21.19   ~58AKx      VNEOCPV06
     P22n0vC 1C2026 05 08.41875514 53 11.274+10 14 19.57   ~58AK 22.23GVNEOCPV06
     P22n0vC |C2026 05 09.16031014 52 05.160+10 08 44.40   ~5955 22.3 GVNEOCP807
     P22n0vC |C2026 05 09.17487014 52 03.790+10 08 37.70   ~5955 22.2 GVNEOCP807
     P22n0vC |C2026 05 09.18943014 52 02.460+10 08 30.20   ~5955 22.0 GVNEOCP807
     P22n0vC 0C2026 05 09.19357 14 52 02.40 +10 08 19.9    ~595o 21.9 GVNEOCP291
     P22n0vC 0C2026 05 09.20506 14 52 01.35 +10 08 14.7    ~595o 21.7 GVNEOCP291
     P22n0vC 0C2026 05 09.21664 14 52 00.25 +10 08 09.1    ~595o 22.1 GVNEOCP291
     P22n0vC 1C2026 05 09.26960214 51 55.361+10 07 44.08   ~5975 22.05GVNEOCPV06
     P22n0vC 1C2026 05 09.27362414 51 54.990+10 07 42.28   ~5975 22.08GVNEOCPV06
     P22n0vC 1C2026 05 09.27764414 51 54.608+10 07 40.37   ~5975 21.93GVNEOCPV06
     P22n0vC 1C2026 05 09.28166314 51 54.248+10 07 38.53   ~5975 21.91GVNEOCPV06
     P22n0vC 0C2026 05 10.22917014 50 29.580+09 59 58.30   ~5A6K       VNEOCP291
     P22n0vC 0C2026 05 10.23668014 50 28.900+09 59 54.60   ~5A6K 22.6 RVNEOCP291
     P22n0vC 0C2026 05 10.24419214 50 28.210+09 59 51.30   ~5A6K 22.5 RVNEOCP291
     P22n0vC KC2026 05 11.19287514 49 03.56 +09 51 47.5    ~5B5K 21.9 GVNEOCPH21
     P22n0vC KC2026 05 11.19865414 49 03.01 +09 51 44.4    ~5B5K 22.2 GVNEOCPH21
     P22n0vC KC2026 05 11.20154414 49 02.75 +09 51 43.2    ~5B5K 22.6 GVNEOCPH21
     P22n0vC KC2026 05 12.18523814 47 35.52 +09 42 59.2    ~5C55 22.2 GVNEOCPH21
     P22n0vC KC2026 05 12.18959214 47 35.10 +09 42 56.8    ~5C55 22.0 GVNEOCPH21
     P22n0vC KC2026 05 12.19553414 47 34.58 +09 42 54.1    ~5C55 21.8 GVNEOCPH21
     P22n0vC 0C2026 05 12.39900014 47 16.220+09 41 03.00   ~5CB5 22.0 RVNEOCP291
     P22n0vC 0C2026 05 12.41248014 47 15.000+09 40 55.70   ~5CB5       VNEOCP291
     P22n0vC 0C2026 05 12.42605014 47 13.780+09 40 48.50   ~5CB5 21.8 RVNEOCP291

Station data:
(291) LPL/Spacewatch II  (N31.961669 W111.599905)  US/Arizona.  Observers J.
   V. Scotti, R. S. McMillan. 1.8-m f/2.7 reflector + CCD.
(807) Cerro Tololo Observatory, La Serena  (S30.169133 W70.805900)  Chile.
   Observer R. Holmes. 0.61-m f/6.5 astrograph + CCD.
(F52) Pan-STARRS 2, Haleakala  (N20.707382 W156.255910)  US/Hawaii.
   Observers J. Herman, T. Lowe, P. Minguez, A. Schultz, I. Smith. Measurers
   K. Chambers, T. de Boer, J. Fairlamb, H. Gao, M. Huber, C.-C. Lin, E.
   Magnier, Y. Ramanjooloo, R. Wainscoat, R. Weryk. 1.8-m Ritchey-Chrétien +
   CCD.
(H21) Astronomical Research Observatory, Westfield  (N39.483054 W87.968270)
   US/Illinois.  Observer R. Holmes. Measurers S. Foglia, L. Buzzi, T.
   Linder, R. Holmes. 0.40-m f/5.32 astrograph + CCD.
(V06) Catalina Sky Survey-Kuiper  (N32.416871 W110.732550)  US/Arizona.
   Measurers T. Beuden, V. F. Carvajal, D. Fay, J. B. Fazekas, D. C. Fuls, A.
   R. Gibbs, A. D. Grauer, H. Gröller, J. K. Hogan, R. A. Kowalski, S. M.
   Larson, G. J. Leonard, D. Rankin, R. L. Seaman, F. C. Shelly, K. W.
   Wierzchoś. 1.55-m reflector + CCD.

Orbital elements:  P22n0vC
   Perihelion 2027 Mar 17.874308 +/- 4.95 TT = 20:59:00.2 (JD 2461482.374308)
Epoch 2026 May 12.0 TT = JDT 2461172.5   Earth MOID: 0.8488      AutoNEOCP
M 244.609538486 +/- 2.0             (J2000 ecliptic)
n   0.372378278 +/- 0.00148         Peri.  269.110762 +/- 1.6
a   1.913432543 +/- 0.00508         Node    76.037304 +/- 0.18
e   0.08166553 +/- 0.00223          Incl.   22.818261 +/- 0.15
P   2.647/966.741d         H 19.94  G  0.15   U  8.4
q 1.757171054 +/- 0.00209    Q 2.069694032 +/- 0.0095
28 of 31 observations 2026 May 8-12; mean residual 0".26
Residuals in arcseconds: 
260508 F52  .14+  .17-    260509 807  .15+  .51-    260511 H21  .06+  .12+    
260508 F52  .01+  .06+    260509 291  .18+  .03-    260511 H21  .24-  .02+    
260508 F52  .00   .10+    260509 291  .31+  .14+    260511 H21  .16-  .32+    
260508 V06( .14+  1.8+)   260509 291  .17-  .04-    260512 H21  .03-  .16-    
260508 V06( .81+  2.0+)   260509 V06  .09+  .10-    260512 H21  .38-  .19-    
260508 F52  .17-  .18-    260509 V06  .11+  .00     260512 H21  .05-  .33+    
260508 F52  .05-  .05-    260509 V06  .03-  .01-    260512 291  .12+  .29-    
260508 V06( .52+  1.9+)   260509 V06  .15+  .05+    260512 291  .13+  .12-    
260508 V06  .02+  1.5+    260510 291  .17-  .13-    260512 291  .23+  .21+    
260509 807  .13+  .02-    260510 291  .01+  .12-    
260509 807  .16-  .13+    260510 291  .05+  .30+    

Ephemerides (geocentric):
Date (UTC) HH   RA             Dec           delta  r     elong  mag " sig PA
---- --------  ------------   ------------  ------ ------ -----  --- --------
2026 05 12 21  14 46 34.547   +09 36 42.75  1.0440 1.9896 151.2 22.3 .200 148
2026 05 12 22  14 46 30.879   +09 36 19.39  1.0440 1.9895 151.1 22.3 .211 148
2026 05 12 23  14 46 27.213   +09 35 55.98  1.0441 1.9895 151.1 22.3 .222 148
2026 05 13 00  14 46 23.547   +09 35 32.54  1.0441 1.9894 151.1 22.3 .233 148
2026 05 13 01  14 46 19.883   +09 35 09.05  1.0441 1.9894 151.1 22.3 .245 148
2026 05 13 02  14 46 16.220   +09 34 45.52  1.0442 1.9894 151.1 22.3 .257 148
2026 05 13 03  14 46 12.558   +09 34 21.95  1.0442 1.9893 151.0 22.3 .269 148
2026 05 13 04  14 46 08.898   +09 33 58.35  1.0443 1.9893 151.0 22.3 .281 148
2026 05 13 05  14 46 05.238   +09 33 34.70  1.0443 1.9893 151.0 22.3 .293 148
2026 05 13 06  14 46 01.580   +09 33 11.00  1.0443 1.9892 151.0 22.3 .305 148
2026 05 13 07  14 45 57.923   +09 32 47.27  1.0444 1.9892 151.0 22.3 .318 149
2026 05 13 08  14 45 54.267   +09 32 23.50  1.0444 1.9892 151.0 22.3 .331 149
2026 05 13 09  14 45 50.612   +09 31 59.69  1.0445 1.9891 150.9 22.3 .344 149
2026 05 13 10  14 45 46.959   +09 31 35.83  1.0445 1.9891 150.9 22.3 .357 149
2026 05 13 11  14 45 43.306   +09 31 11.94  1.0446 1.9891 150.9 22.3 .370 149
2026 05 13 12  14 45 39.656   +09 30 48.00  1.0446 1.9890 150.9 22.3 .384 149
2026 05 13 13  14 45 36.006   +09 30 24.03  1.0446 1.9890 150.9 22.3 .397 149
2026 05 13 14  14 45 32.357   +09 30 00.01  1.0447 1.9889 150.8 22.3 .411 149
2026 05 13 15  14 45 28.710   +09 29 35.95  1.0447 1.9889 150.8 22.3 .425 149
2026 05 13 16  14 45 25.064   +09 29 11.85  1.0448 1.9889 150.8 22.3 .440 149
2026 05 13 17  14 45 21.420   +09 28 47.72  1.0448 1.9888 150.8 22.3 .454 149
2026 05 13 18  14 45 17.776   +09 28 23.54  1.0449 1.9888 150.8 22.3 .469 149
2026 05 13 19  14 45 14.134   +09 27 59.32  1.0449 1.9888 150.7 22.3 .483 149
2026 05 13 20  14 45 10.494   +09 27 35.06  1.0450 1.9887 150.7 22.3 .498 149
2026 05 13 21  14 45 06.854   +09 27 10.76  1.0450 1.9887 150.7 22.3 .513 149
2026 05 13 22  14 45 03.216   +09 26 46.41  1.0451 1.9887 150.7 22.3 .529 149
2026 05 13 23  14 44 59.580   +09 26 22.03  1.0451 1.9886 150.7 22.3 .544 149
2026 05 14 00  14 44 55.944   +09 25 57.61  1.0452 1.9886 150.6 22.3 .560 149
2026 05 14 01  14 44 52.310   +09 25 33.15  1.0452 1.9886 150.6 22.3 .576 149
2026 05 14 02  14 44 48.678   +09 25 08.65  1.0453 1.9885 150.6 22.3 .592 149
2026 05 14 03  14 44 45.046   +09 24 44.10  1.0453 1.9885 150.6 22.3 .608 149
2026 05 14 04  14 44 41.416   +09 24 19.52  1.0454 1.9884 150.6 22.3 .624 149
2026 05 14 05  14 44 37.788   +09 23 54.90  1.0454 1.9884 150.5 22.3 .641 149
2026 05 14 06  14 44 34.161   +09 23 30.23  1.0455 1.9884 150.5 22.3 .658 149
2026 05 14 07  14 44 30.535   +09 23 05.53  1.0455 1.9883 150.5 22.3 .675 149
2026 05 14 08  14 44 26.911   +09 22 40.78  1.0456 1.9883 150.5 22.3 .692 149
2026 05 14 09  14 44 23.288   +09 22 16.00  1.0456 1.9883 150.4 22.3 .709 149
2026 05 14 10  14 44 19.666   +09 21 51.17  1.0457 1.9882 150.4 22.3 .726 149
2026 05 14 11  14 44 16.046   +09 21 26.31  1.0457 1.9882 150.4 22.3 .744 149
2026 05 14 12  14 44 12.428   +09 21 01.40  1.0458 1.9882 150.4 22.3 .762 149
2026 05 14 13  14 44 08.811   +09 20 36.46  1.0458 1.9881 150.4 22.3 .780 149
2026 05 14 14  14 44 05.195   +09 20 11.47  1.0459 1.9881 150.3 22.3 .798 149
2026 05 14 15  14 44 01.581   +09 19 46.45  1.0460 1.9881 150.3 22.3 .817 149
2026 05 14 16  14 43 57.968   +09 19 21.38  1.0460 1.9880 150.3 22.3 .835 149
2026 05 14 17  14 43 54.357   +09 18 56.28  1.0461 1.9880 150.3 22.3 .854 149
2026 05 14 18  14 43 50.747   +09 18 31.13  1.0461 1.9879 150.3 22.3 .873 149
2026 05 14 19  14 43 47.139   +09 18 05.94  1.0462 1.9879 150.2 22.3 .892 149
2026 05 14 20  14 43 43.532   +09 17 40.72  1.0462 1.9879 150.2 22.3 .911 149